When you browse on this site, cookies collect data to enhance your experience and personalize the content and advertising you see.
Visit our Privacy Policy to learn more. By continuing to use the site, you agree to this use of cookies and data.
  • In Portugal
  • List of Countries
  • For 7 days
  • Water Temperature
  • Weather Map
  • Weather Widgets
  • user-avatar
    Login

    Hourly Weather Chasha

    Today, 20 September, Friday

    Time Temperature Precipitation Wind Pressure Humidity
    00:00 +5°C° 0 mm 3 mps 748 mmHg 90%
    01:00 +4°C° 0 mm 3 mps 748 mmHg 92%
    02:00 +4°C° 0 mm 3 mps 748 mmHg 95%
    03:00 +4°C° 0 mm 4 mps 748 mmHg 93%
    04:00 +4°C° 0 mm 4 mps 748 mmHg 92%
    05:00 +5°C° 0 mm 4 mps 748 mmHg 91%
    06:00 +5°C° 0 mm 5 mps 748 mmHg 87%
    07:00 +6°C° 0 mm 5 mps 748 mmHg 83%
    08:00 +6°C° 0 mm 5 mps 748 mmHg 77%
    09:00 +7°C° 0 mm 6 mps 748 mmHg 73%
    10:00 +7°C° 0 mm 6 mps 748 mmHg 69%
    11:00 +8°C° 0 mm 6 mps 749 mmHg 64%
    12:00 +8°C° 0.1 mm 6 mps 749 mmHg 61%
    13:00 +9°C° 0.1 mm 6 mps 749 mmHg 58%
    14:00 +9°C° 0.1 mm 6 mps 749 mmHg 56%
    15:00 +9°C° 0.1 mm 5 mps 749 mmHg 57%
    16:00 +10°C° 0.1 mm 4 mps 749 mmHg 59%
    17:00 +8°C° 0.1 mm 4 mps 749 mmHg 61%
    18:00 +8°C° 0 mm 3 mps 749 mmHg 66%
    19:00 +5°C° 0 mm 3 mps 750 mmHg 70%
    20:00 +4°C° 0 mm 3 mps 750 mmHg 75%
    21:00 +3°C° 0 mm 3 mps 750 mmHg 77%
    22:00 +4°C° 0 mm 2 mps 750 mmHg 79%
    23:00 +3°C° 0 mm 2 mps 751 mmHg 82%

    Tomorrow, 21 September, Saturday

    Time Temperature Precipitation Wind Pressure Humidity
    00:00 +3°C° 0 mm 2 mps 751 mmHg 82%
    01:00 +3°C° 0 mm 2 mps 751 mmHg 83%
    02:00 +3°C° 0 mm 2 mps 751 mmHg 84%
    03:00 +3°C° 0 mm 2 mps 751 mmHg 83%
    04:00 +3°C° 0 mm 2 mps 751 mmHg 82%
    05:00 +3°C° 0 mm 2 mps 750 mmHg 81%
    06:00 +3°C° 0 mm 3 mps 750 mmHg 78%
    07:00 +4°C° 0 mm 3 mps 750 mmHg 75%
    08:00 +5°C° 0 mm 3 mps 750 mmHg 72%
    09:00 +5°C° 0.2 mm 4 mps 749 mmHg 76%
    10:00 +5°C° 0.2 mm 4 mps 749 mmHg 81%
    11:00 +5°C° 0.2 mm 5 mps 749 mmHg 85%
    12:00 +6°C° 0.6 mm 5 mps 748 mmHg 89%
    13:00 +7°C° 0.6 mm 4 mps 748 mmHg 92%
    14:00 +7°C° 0.6 mm 4 mps 748 mmHg 96%
    15:00 +9°C° 0.3 mm 5 mps 747 mmHg 95%
    16:00 +10°C° 0.3 mm 5 mps 747 mmHg 93%
    17:00 +12°C° 0.3 mm 5 mps 747 mmHg 92%
    18:00 +12°C° 0.1 mm 5 mps 747 mmHg 92%
    19:00 +12°C° 0.1 mm 5 mps 747 mmHg 93%
    20:00 +12°C° 0.1 mm 5 mps 747 mmHg 93%
    21:00 +12°C° 0 mm 5 mps 747 mmHg 93%
    22:00 +12°C° 0 mm 5 mps 747 mmHg 94%
    23:00 +10°C° 0 mm 6 mps 747 mmHg 94%

    Day after tomorrow, 22 September, Sunday

    Time Temperature Precipitation Wind Pressure Humidity
    00:00 +10°C° 0 mm 6 mps 747 mmHg 94%
    01:00 +10°C° 0 mm 6 mps 747 mmHg 94%
    02:00 +10°C° 0 mm 6 mps 747 mmHg 95%
    03:00 +10°C° 0 mm 6 mps 747 mmHg 94%
    04:00 +9°C° 0 mm 5 mps 747 mmHg 94%
    05:00 +9°C° 0 mm 5 mps 747 mmHg 94%
    06:00 +9°C° 0 mm 5 mps 747 mmHg 93%
    07:00 +10°C° 0 mm 5 mps 747 mmHg 91%
    08:00 +10°C° 0 mm 5 mps 747 mmHg 90%
    09:00 +12°C° 0 mm 5 mps 747 mmHg 85%
    10:00 +13°C° 0 mm 5 mps 747 mmHg 80%
    11:00 +15°C° 0 mm 5 mps 746 mmHg 75%
    12:00 +16°C° 0 mm 6 mps 746 mmHg 70%
    13:00 +17°C° 0 mm 6 mps 746 mmHg 65%
    14:00 +18°C° 0 mm 7 mps 746 mmHg 60%
    15:00 +19°C° 0 mm 6 mps 746 mmHg 64%
    16:00 +17°C° 0 mm 5 mps 746 mmHg 68%
    17:00 +17°C° 0 mm 4 mps 745 mmHg 72%
    18:00 +15°C° 0 mm 4 mps 746 mmHg 78%
    19:00 +13°C° 0 mm 3 mps 746 mmHg 85%
    20:00 +11°C° 0 mm 3 mps 747 mmHg 91%
    21:00 +10°C° 0 mm 3 mps 747 mmHg 88%
    22:00 +9°C° 0 mm 3 mps 748 mmHg 85%
    23:00 +8°C° 0 mm 3 mps 748 mmHg 82%

    23 September, Monday

    Time Temperature Precipitation Wind Pressure Humidity
    00:00 +8°C° 0 mm 3 mps 748 mmHg 77%
    01:00 +7°C° 0 mm 3 mps 749 mmHg 72%
    02:00 +7°C° 0 mm 3 mps 749 mmHg 67%
    03:00 +5°C° 0 mm 3 mps 749 mmHg 68%
    04:00 +5°C° 0 mm 3 mps 749 mmHg 69%
    05:00 +4°C° 0 mm 3 mps 750 mmHg 70%
    06:00 +5°C° 0 mm 3 mps 750 mmHg 71%
    07:00 +5°C° 0 mm 3 mps 750 mmHg 71%
    08:00 +5°C° 0 mm 3 mps 750 mmHg 71%
    09:00 +7°C° 0 mm 3 mps 750 mmHg 65%
    10:00 +8°C° 0 mm 3 mps 750 mmHg 60%
    11:00 +10°C° 0 mm 3 mps 750 mmHg 54%
    12:00 +10°C° 0 mm 3 mps 750 mmHg 52%
    13:00 +11°C° 0 mm 3 mps 750 mmHg 49%
    14:00 +11°C° 0 mm 3 mps 749 mmHg 47%
    15:00 +11°C° 0 mm 3 mps 749 mmHg 50%
    16:00 +11°C° 0 mm 3 mps 749 mmHg 53%
    17:00 +10°C° 0 mm 2 mps 748 mmHg 56%
    18:00 +9°C° 0 mm 3 mps 748 mmHg 56%
    19:00 +8°C° 0 mm 3 mps 748 mmHg 57%
    20:00 +7°C° 0 mm 3 mps 748 mmHg 58%
    21:00 +7°C° 0 mm 3 mps 748 mmHg 59%
    22:00 +5°C° 0 mm 3 mps 748 mmHg 60%
    23:00 +5°C° 0 mm 3 mps 748 mmHg 62%

    24 September, Tuesday

    Time Temperature Precipitation Wind Pressure Humidity
    00:00 +4°C° 0 mm 3 mps 748 mmHg 62%
    01:00 +4°C° 0 mm 4 mps 748 mmHg 63%
    02:00 +4°C° 0 mm 4 mps 748 mmHg 63%
    03:00 +3°C° 0 mm 4 mps 748 mmHg 64%
    04:00 +3°C° 0 mm 4 mps 748 mmHg 65%
    05:00 +3°C° 0 mm 4 mps 748 mmHg 66%
    06:00 +4°C° 0 mm 4 mps 748 mmHg 65%
    07:00 +4°C° 0 mm 4 mps 748 mmHg 64%
    08:00 +5°C° 0 mm 5 mps 748 mmHg 63%
    09:00 +6°C° 0 mm 5 mps 748 mmHg 59%
    10:00 +8°C° 0 mm 5 mps 748 mmHg 55%
    11:00 +10°C° 0 mm 5 mps 748 mmHg 51%
    12:00 +11°C° 0 mm 4 mps 748 mmHg 51%
    13:00 +12°C° 0 mm 4 mps 747 mmHg 50%
    14:00 +13°C° 0 mm 4 mps 747 mmHg 50%
    15:00 +12°C° 0 mm 3 mps 747 mmHg 53%
    16:00 +12°C° 0 mm 3 mps 747 mmHg 56%
    17:00 +11°C° 0 mm 3 mps 747 mmHg 60%
    18:00 +9°C° 0 mm 3 mps 747 mmHg 63%
    19:00 +8°C° 0 mm 3 mps 747 mmHg 66%
    20:00 +5°C° 0 mm 3 mps 747 mmHg 69%
    21:00 +4°C° 0 mm 3 mps 747 mmHg 69%
    22:00 +4°C° 0 mm 3 mps 747 mmHg 68%
    23:00 +3°C° 0 mm 3 mps 747 mmHg 68%

    25 September, Wednesday

    Time Temperature Precipitation Wind Pressure Humidity
    00:00 +3°C° 0 mm 3 mps 747 mmHg 69%
    01:00 +2°C° 0 mm 3 mps 747 mmHg 71%
    02:00 +2°C° 0 mm 3 mps 747 mmHg 72%
    03:00 +2°C° 0 mm 3 mps 747 mmHg 73%
    04:00 +1°C° 0 mm 3 mps 747 mmHg 75%
    05:00 +1°C° 0 mm 3 mps 747 mmHg 77%
    06:00 +2°C° 0 mm 3 mps 747 mmHg 73%
    07:00 +3°C° 0 mm 3 mps 747 mmHg 70%
    08:00 +4°C° 0 mm 3 mps 747 mmHg 67%
    09:00 +7°C° 0 mm 3 mps 748 mmHg 62%
    10:00 +8°C° 0 mm 3 mps 748 mmHg 57%
    11:00 +10°C° 0 mm 3 mps 748 mmHg 52%
    12:00 +11°C° 0 mm 3 mps 748 mmHg 50%
    13:00 +12°C° 0 mm 3 mps 747 mmHg 48%
    14:00 +13°C° 0 mm 3 mps 747 mmHg 46%
    15:00 +12°C° 0 mm 3 mps 747 mmHg 50%
    16:00 +11°C° 0 mm 3 mps 747 mmHg 54%
    17:00 +10°C° 0 mm 3 mps 747 mmHg 58%
    18:00 +9°C° 0 mm 3 mps 747 mmHg 61%
    19:00 +8°C° 0 mm 3 mps 747 mmHg 64%
    20:00 +5°C° 0 mm 3 mps 748 mmHg 67%
    21:00 +5°C° 0 mm 3 mps 748 mmHg 67%
    22:00 +4°C° 0 mm 3 mps 748 mmHg 67%
    23:00 +4°C° 0 mm 4 mps 748 mmHg 67%
    Show more